Tracking 21076 objects as of 9-Aug-2020
HD Live streaming from Space Station
objects crossing your sky now
Track the most recent launched group of Starlink satellites

COSMOS 1703

Track COSMOS 1703 now!
10-day predictions
COSMOS 1703 is classified as:


NORAD ID: 16262
Int'l Code: 1985-108A
Perigee: 532.2 km
Apogee: 546.3 km
Inclination: 82.5 °
Period: 95.3 minutes
Semi major axis: 6910 km
RCS: 6.9173 m2 (large)
Launch date: November 22, 1985
Source: Commonwealth of Independent States (former USSR) (CIS)
Launch site: PLESETSK MISSILE AND SPACE COMPLEX (PKMTR)
aabbcc
Your satellite tracking list
Your tracking list is empty




NASA's NSSDC Master Catalog

Two Line Element Set (TLE):
1 16262U 85108A   20221.40723515  .00000212  00000-0  10789-4 0  9997
2 16262  82.4800 201.2779 0010211 288.6603  71.3518 15.11331599892278
Source of the keplerian elements: AFSPC